Location: Waco, TX
(31.5480°N, 97.1670°W)
Time: 13:20:55
(UTC-05:00)

ISS - Pass Details

Date: 06 May 2021
Orbit: 417 x 422 km, 51.6° (Epoch: 15 May)

Event Time Altitude Azimuth Distance (km) Brightness Sun altitude
Rises 09:58:42 0° 298° (WNW) 2,367 -0.4 41.1°
Reaches altitude 10° 10:01:14 10° 279° (W) 1,500 -1.3 41.6°
Maximum altitude 10:03:38 18° 233° (SW) 1,088 -1.8 42.1°
Drops below altitude 10° 10:06:03 10° 187° (S) 1,493 -0.9 42.6°
Sets 10:08:33 0° 168° (SSE) 2,353 0.2 43.2°
